Skip to main content

São Jorge

ID 1200510 · 38.6600, -28.1700 map

Latest reading · 2026-05-09 19:00 (Europe/Lisbon)

Temperature
15.6 °C
Humidity
69 %
Pressure
1,019.2 hPa
Precipitation
0.0 mm
Radiation
2,079 W/m²
Wind speed
11.9 km/h
Wind direction
N · North

24-hour history

Time (Europe/Lisbon) Temp Humidity Pressure Rain Wind Dir
2026-05-09 19:00 15.6 °C 69 % 1,019.2 0.0 mm 11.9 km/h N
2026-05-09 18:00 15.6 °C 72 % 1,018.9 0.0 mm 11.9 km/h E
2026-05-09 17:00 14.9 °C 78 % 1,018.8 0.0 mm 14.4 km/h W
2026-05-09 16:00 13.8 °C 85 % 1,018.9 0.1 mm 24.1 km/h W
2026-05-09 15:00 14.1 °C 77 % 1,019.3 0.8 mm 24.8 km/h NW
2026-05-09 14:00 14.1 °C 69 % 1,019.6 0.1 mm 23.8 km/h NW
2026-05-09 13:00 13.4 °C 67 % 1,019.8 0.2 mm 21.2 km/h NW
2026-05-09 12:00 13.2 °C 60 % 1,019.8 0.0 mm 22.7 km/h W
2026-05-09 11:00 12.8 °C 57 % 1,019.7 0.0 mm 22.0 km/h NW
2026-05-09 10:00 12.3 °C 62 % 1,019.5 0.0 mm 24.5 km/h W
2026-05-09 09:00 12.3 °C 66 % 1,018.9 0.0 mm 18.7 km/h W
2026-05-09 08:00 12.3 °C 64 % 1,018.4 0.0 mm 21.2 km/h W
2026-05-09 07:00 12.3 °C 69 % 1,018.5 0.0 mm 13.0 km/h W
2026-05-09 06:00 11.8 °C 74 % 1,018.9 0.1 mm 14.8 km/h W
2026-05-09 05:00 12.6 °C 68 % 1,018.9 0.0 mm 14.0 km/h W
2026-05-09 04:00 12.4 °C 62 % 1,019.2 0.0 mm 19.8 km/h W
2026-05-09 03:00 12.5 °C 65 % 1,019.5 0.0 mm 17.3 km/h W
2026-05-09 02:00 12.7 °C 74 % 1,019.6 0.0 mm 16.9 km/h W
2026-05-09 01:00 12.5 °C 81 % 1,019.8 0.0 mm 20.2 km/h W
2026-05-09 00:00 13.0 °C 80 % 1,019.6 0.7 mm 17.6 km/h NW
2026-05-08 23:00 13.5 °C 77 % 1,018.8 0.3 mm 19.8 km/h W
2026-05-08 22:00 14.0 °C 77 % 1,018.2 0.0 mm 20.9 km/h W
2026-05-08 21:00 14.3 °C 77 % 1,017.7 0.0 mm 19.4 km/h NW
2026-05-08 20:00 14.6 °C 81 % 1,017.5 0.2 mm 20.9 km/h NW